Back to catalog

STARLINK-2578

AliveCommunicationsVLEO
NORAD 48362·PAYLOAD·🇺🇸 United States

Launched May 4, 2021 from Cape Canaveral Space Force Station

Loading…

Next Passes (next 24 hours)

TLE

FreshSource: CelesTrak SupGP

Epoch: Sep 14, 2026, 13:11 UTC

1 48362C 21038K   26257.54979167 -.00023432  00000+0 -75383-3 0  2578
2 48362  53.1604 199.2219 0001446  92.8568 131.6506 15.31700775    19

Track STARLINK-2578 in real time with AllMySat

Download on the App Store